TITAN 3A TRANSTAGE R/B, 1359

Orbit data source: Space-Track

TITAN 3A TRANSTAGE R/B, 1359 is space debris in LEO originally from a launch on Thu, 06 May 1965 UTC via a TITAN IIIA launch vehicle from the Air Force Eastern Test Range (AFETR). Debris objects in space refer to the collection of defunct objects orbiting the Earth. Examples of debris include non-operational satellites, rocket bodies, and fragments generated from explosions, collisions, or faulty payload assembly.

Loading next visibility...
Identifier
1359, 1965-034A
Orbit
LEO
Last TLE update
4 hours ago
Origin
Manufacturer
Martin Marietta
Mission
Spacecraft
Bus & Motor
Unknown
Mass
2,302 kg wet, 124 kg dry
Launch date (UTC)
1965-05-06 (60 years ago)
Launch vehicle
TITAN IIIA
Launch site
Air Force Eastern Test Range (AFETR)
Object type
Payload
Rocket body
Debris
Shape & HBR
Cyl + 2 Nozzle, 5.99 m
Radar Cross Section
18.358 m², Large (>1 m²)

Expand to show TLE details & history

TLE from 4 hours ago
0 TITAN 3A TRANSTAGE R/B
1  1359U 65034A   25134.16345318  .00000009  00000-0 -26837-3 0  9991
2  1359  32.1318 329.1122 0495603 251.4328 103.1699  9.17133725 12347
Epoch: 2025-05-14T03:55Z
Definitive object data (Epoch: 2025-05-14T03:55:22.354Z)
Latitude
0.00001°
Longitude
38.1173°
Altitude
3,392.56 km
Speed
6.345 km/s
True Right ascension
21h 56m 26s
True Declination
0° 00' 00"
Sunlit
Object was in daylight at TLE epoch
Visualization TLE readout
Latitude
12.07763°
Longitude
-162.03614°
Altitude
3,279.256 km
Speed
6.421 km/s
Apparent Right ascension
07h 11m 01s
Apparent Declination
-9° 29' 24"
Sunlit
Object is in daylight
Visualization observer readout
Local Sidereal Time
16:14:11
Azimuth
295.443° NW
Elevation
-40.395°
Doppler factor
1
Orbital elements
Apogee altitude
3,743.249 km
Perigee altitude
2,787.384 km
Semi-major axis
9,643.453 km
Eccentricity
0.0495603
Inclination
32.1318°
RAAN
329.1122°
Arg. of periapsis
251.4328°
True anomaly
108.61452°
Mean anomaly
103.1699°
Eccentric anomaly
105.90085°
Mean motion
2.29189 °/min
BSTAR
-0.00026837
Orbital period
157.08 mins
Loading maneuver chart data...
Loading SW <> Apogee altitude chart data...
Loading historical data...
Loading historical data...
Loading historical data...
Loading historical data...
Loading historical data...
Loading historical data...
Loading historical data...
Other satellites on launch #34 in the year 1965 (1965-05-06 UTC)

TITAN 3A TRANSTAGE R/B Visibility forecast

Observer location: undefined°, undefined°

Span
Click to sort rows by Start time (UTC) header in descending order
Start Az.
Max El. time (UTC)
Max El. Az.
Max El.
End time (UTC)
End Az.
34 mins2025-05-14 14:24:25.492Z199.536° SSW2025-05-14 14:41:25.492Z140.227° SSE29.354°2025-05-14 14:58:25.492Z86.44° E
40 mins2025-05-14 17:12:25.492Z238.63° WSW2025-05-14 17:32:25.492Z160.309° S41.675°2025-05-14 17:52:25.492Z89.682° E
40 mins2025-05-14 20:04:25.492Z265.845° W2025-05-14 20:24:25.492Z193.511° SSW42.609°2025-05-14 20:44:25.492Z112.624° SE
34 mins2025-05-14 22:58:25.492Z273.98° WNW2025-05-14 23:15:25.492Z216.11° SW33.468°2025-05-14 23:32:25.492Z149.78° SSE
|